Regional Weather Roundup
Issued by NWS Austin/San Antonio, TX

Current Version | Previous Version | Text Only | Print | Product List | Glossary On
Versions: 1 2 3 4 5 6 7 8 9 10 11 12 13 14 15 16 17 18 19 20 21 22 23 24 25 26 27 28 29 30 31 32 33 34 35 36 37 38 39 40 41 42 43 44 45 46 47 48 49 50
000
ASUS44 KEWX 131601
RWREWX
SOUTH TEXAS REGIONAL WEATHER ROUNDUP
NATIONAL WEATHER SERVICE AUSTIN/SAN ANTONIO TX
1100 AM CDT SUN JUN 13 2021

NOTE: "FAIR" INDICATED FEW OR NO CLOUDS BELOW 12,000 FEET WITH NO
SIGNIFICANT WEATHER AND/OR OBSTRUCTIONS TO VISIBILITY.

* - THESE STATIONS ARE NOT NWS OR FAA STATIONS...AND ARE NOT SUBJECT
    TO NWS AND FAA QUALITY CONTROL.

TXZ171-172-183>190-131700-
TEXAS HILL COUNTRY AND EDWARDS PLATEAU

CITY           SKY/WX    TMP DP  RH WIND       PRES   REMARKS
JUNCTION       MOSUNNY   85  69  58 SW5       30.08F
*LLANO         SUNNY     84  72  65 VRB5      30.05F
BURNET         SUNNY     85  71  63 NW5       30.07F HX  90
*HORSESHOE BAY SUNNY     85  71  62 CALM      30.06F HX  90
*LAGO VISTA    SUNNY     87  70  55 SW5       30.06F HX  92
*KERRVILLE     SUNNY     83  74  74 CALM      30.08S HX  90
*FREDERICKSBRG SUNNY     80  71  72 CALM      30.09S
*ROCKSPRINGS     N/A     82  70  65 MISG      30.15S
*BOERNE        PTSUNNY   84  70  61 SW5       30.06F
*CASTROVILLE   MOSUNNY   85  71  62 SE5       30.05F HX  90
HONDO          SUNNY     85  72  65 CALM      30.04F HX  91
*UVALDE        SUNNY     83  73  71 CALM      30.06S
DEL RIO        SUNNY     89  72  56 SE9       30.02F HX  96
*LAUGHLIN AFB  NOT AVBL
*SPOFFORD      SUNNY     87  71  58 SE5       29.98R HX  92
*EAGLE PASS    SUNNY     86  68  54 CALM      30.02R
CARRIZO SPRGS  SUNNY    N/A N/A N/A SE5       30.00S
$$

TXZ173-191>194-202-209-217>225-228-131700-
CENTRAL AND SOUTH CENTRAL TEXAS

CITY           SKY/WX    TMP DP  RH WIND       PRES   REMARKS
GEORGETOWN     SUNNY     87  72  60 W3        30.04F HX  93
*TAYLOR        SUNNY     92  74  55 SW6       30.03R HX 100
AUSTIN/BERGSTM MOSUNNY   88  73  61 W6        30.01F HX  95
AUSTIN/MABRY   SUNNY     89  71  55 VRB3      30.04S HX  95
*PFLUGERVILLE  SUNNY     86  72  62 CALM      30.02S HX  92
SAN MARCOS       N/A     88  76  67 CALM      30.04R HX  99
NEW BRAUNFELS  MOSUNNY   85  74  69 W8        30.02S HX  92
*RANDOLPH AFB  MOSUNNY   84  73  70 W3        30.02S HX  90
*SEGUIN        PTSUNNY   81  74  78 SW7       30.07S
SAN ANTONIO    MOSUNNY   84  73  69 W8        30.05S HX  90
STINSON FIELD  MOSUNNY   87  72  60 CALM      30.01F HX  93
*KELLY FIELD   MOSUNNY   84  74  71 SW5       30.03S HX  91
*PLEASANTON    MOSUNNY   84  73  68 CALM      30.03S HX  90
*KENEDY        SUNNY     84  73  68 W3        30.02F HX  90
*LA GRANGE     SUNNY     88  78  72 NW3       29.98F HX 102
*GIDDINGS      HAZE      87  73  63 W5        30.01F VSB 1/2 HX  94
*GONZALES      MOSUNNY   85  76  75 W5        30.01F HX  94
$$

TXZ163>164-176>182-195>201-210>213-226-227-235-131700-
SOUTHEAST TEXAS

CITY           SKY/WX    TMP DP  RH WIND       PRES   REMARKS
COLLEGE STN    SUNNY     89  75  63 NW7       29.99F HX  99
*BRYAN         MOSUNNY   87  75  66 W6        30.01F HX  97
*CALDWELL      SUNNY     88  75  64 W7        30.01S HX  97
*CROCKETT      MOSUNNY   88  77  70 W6        29.99S HX 100
*BRENHAM       SUNNY     88  76  66 W3        30.00F HX  99
HUNTSVILLE     PTSUNNY   91  80  70 NW8       29.99F HX 109
CONROE         SUNNY     88  76  67 MISG      29.99S HX  99
HOUSTON BUSH   MOSUNNY   91  73  55 W8        29.97F HX  99
HOUSTON HOBBY  MOSUNNY   90  73  57 VRB6      29.96F HX  98
*HOUSTON SW AP MOSUNNY   88  76  68 CALM      29.98F HX  98
PEARLAND       MOSUNNY   88  74  63 CALM      29.98F HX  96
HOUSTON HOOKS  MOSUNNY   90  75  61 W6        29.98S HX 100
ELLINGTON FLD  NOT AVBL
SUGAR LAND     MOSUNNY   90  76  63 NW5       29.97F HX 101
*HOUSTON EXEC  MOSUNNY   88  77  70 VRB5      30.00S HX 100
*CLEVELAND MUN MOSUNNY   90  76  64 N6        29.99S HX 101
*WHARTON       PTSUNNY   83  75  77 W5        30.00F
*COLUMBUS      FAIR      85  76  73 N3        30.00F HX  95
*EAGLE LAKE    SUNNY     86  76  72 NW3       29.99F HX  95
$$

TXZ214>216-236>238-131700-
THE UPPER TEXAS COAST

CITY           SKY/WX    TMP DP  RH WIND       PRES   REMARKS
*ORANGE        SUNNY     90  76  62 W3        29.98F HX 101
PORT ARTHUR    SUNNY     90  77  65 W8        29.95F HX 103
GALVESTON      MOSUNNY   89  74  60 CALM      29.98F HX  98
ANGLETON       PTSUNNY   88  74  63 NW5       29.98S HX  96
*BAY CITY      NOT AVBL
PALACIOS       PTSUNNY   83  78  85 NW6       29.99S HX  93
$$

TXZ229>234-239>247-131700-
TEXAS COASTAL BEND AND RIO GRANDE PLAINS

CITY           SKY/WX    TMP DP  RH WIND       PRES   REMARKS
VICTORIA       PTSUNNY   82  75  79 W7        30.00S
*BEEVILLE      PTSUNNY   86  79  81 CALM      30.00F HX  99
ROCKPORT       SUNNY     87  76  69 N8        29.99S HX  97
*PORT ARANSAS  CLOUDY    84  76  76 E6        30.01S HX  92
*PORT LAVACA   PTSUNNY   82  77  85 W6        30.00S
*INGLESIDE     SUNNY     85  76  74 CALM      29.99S HX  94
CORPUS CHRISTI MOSUNNY   87  74  64 NE5       29.99F HX  95
CORPUS NAS     SUNNY     88  76  67 NE7       29.99S HX  99
*ROBSTOWN      MOSUNNY   87  76  69 CALM      30.00S HX  97
ALICE          MOSUNNY   85  74  69 CALM      30.00R HX  92
KINGSVILLE NAS MOSUNNY   88  75  65 NE5       29.99S HX  97
COTULLA        NOT AVBL
LAREDO         SUNNY     89  71  55 SE6       29.99F HX  95
$$

TXZ248>255-131700-
DEEP SOUTH TEXAS

CITY           SKY/WX    TMP DP  RH WIND       PRES   REMARKS
BROWNSVILLE    MOSUNNY   89  71  55 VRB5      29.98R HX  95
PORT ISABEL    SUNNY     86  75  69 NE10      29.98S HX  95
HARLINGEN      MOSUNNY   87  77  72 NE6       29.98S HX  99
*HEBBRONVILLE  SUNNY     82  67  60 SE5       30.02F
MCALLEN        SUNNY     87  72  60 VRB3      29.99R HX  93
*WESLACO       MOSUNNY   85  74  68 NE3       29.97  HAZE    HX  93
FALFURRIAS     SUNNY     82  74  76 SE3       29.98F
EDINBURG       MOSUNNY   84  75  74 CALM      29.99S HX  93
*ZAPATA        SUNNY     91  66  43 CALM      30.00S HX  94
$$

TXZ213>215-236>238-242>244-246-247-251-254-255-131700-
CMAN STATIONS

STATION/POSITION TIME  TEMP    WIND        PRES    WAVE
                       AIR SEA DIR/SP/G            HT/PER
                 (UTC) (F)     (DEG/KT/KT) (MB)    (FT/S)
NORTH JETTY/GLS  1530   85 82  240/  2/  5 1014.1
EAGLE POINT      1530   86 86  340/  4/  6 1014.6
MORGANS POINT    1530   86 84  340/  5/  6 1014.9
MISSION/ARANSAS  1500   80     330/  3     1017.0
PORT O`CONNOR    1530   81 87  260/  3/  3 1015.3
PORT ARANSAS     1500   81 84   90/  3/  4 1015.6
MALAQUITE BEACH  1530   93      50/  4/  5   N/A
BAFFIN BAY       1530   82 87   50/  3/  4 1015.2
PORT ISABEL      1530   84 81   70/  4/  8 1016.3
$$



USA.gov is the U.S. government's official web portal to all federal, state and local government web resources and services.